Weather History for Cincinnati, OH

Change the Weather History Date:

Wednesday, October 2, 2013

  Actual Average Record
Temperature  
Mean Temperature 68 °F -  
Max Temperature 79 °F 72 °F 86 °F (1971)
Min Temperature 57 °F 50 °F 32 °F (1958)
Cooling Degree Days 2    
Growing Degree Days 18 (Base 50)    
Moisture  
Dew Point 61 °F    
Average Humidity 95    
Maximum Humidity 100    
Minimum Humidity 68    
Precipitation  
Precipitation 0.01 in - - ()
Sea Level Pressure  
Sea Level Pressure 30.09 in    
Wind  
Wind Speed 1 mph (SSW)    
Max Wind Speed 7 mph    
Max Gust Speed -    
Visibility 3 miles    
Events Fog    
Averages and records for this station are not official NWS values.
T = Trace of Precipitation, MM = Missing Value Source: NWS Daily Summary

Daily Weather History Graph

Daily Weather History Graph

Search for Another Location

Airport:

Trip Planner

Search our weather history database for the weather conditions in past years. The results will help you decide how hot, cold, wet, or windy it might be!

Date:

Astronomy

Oct. 02, 2013 Rise Set
Actual Time 7:34 AM EDT 7:18 PM EDT
Civil Twilight 7:08 AM EDT 7:44 PM EDT
Nautical Twilight 6:37 AM EDT 8:15 PM EDT
Astronomical Twilight 6:05 AM EDT 8:47 PM EDT
Moon 5:07 AM EDT (10/2) 5:53 PM EDT (10/2)
Length of Visible Light 12h 36m
Length of Day
11h 43m
Waning Crescent, 6% of the Moon is Illuminated
Oct 2
Waning Crescent
Oct 4
New
Oct 11
First Quarter
Oct 18
Full
Oct 26
Last Quarter

Hourly Weather History & Observations

Time (EDT) Temp. Dew Point Humidity Pressure Visibility Wind Dir Wind Speed Gust Speed Precip Events Conditions
12:05 AM 59.0 °F 59.0 °F 100% 30.07 in 1.0 mi Calm Calm - N/A   Mist
12:12 AM 57.2 °F 57.2 °F 100% 30.07 in 0.2 mi Calm Calm - N/A Fog Fog
12:31 AM 57.2 °F 57.2 °F 100% 30.08 in 0.5 mi Calm Calm - N/A Fog Fog
12:45 AM 57.2 °F 57.2 °F 100% 30.08 in 0.2 mi Calm Calm - N/A Fog Fog
12:53 AM 57.9 °F 57.9 °F 100% 30.07 in 0.2 mi Calm Calm - N/A Fog Fog
1:06 AM 57.2 °F 57.2 °F 100% 30.08 in 1.0 mi Calm Calm - N/A   Mist
1:18 AM 57.2 °F 57.2 °F 100% 30.08 in 0.2 mi Calm Calm - N/A Fog Fog
1:27 AM 57.2 °F 57.2 °F 100% 30.08 in 1.2 mi Calm Calm - N/A   Mostly Cloudy
1:35 AM 57.2 °F 57.2 °F 100% 30.08 in 2.5 mi Calm Calm - N/A   Scattered Clouds
1:43 AM 57.2 °F 57.2 °F 100% 30.08 in 3.0 mi Calm Calm - 0.01 in   Partly Cloudy
1:51 AM 57.2 °F 57.2 °F 100% 30.08 in 2.5 mi Calm Calm - 0.01 in   Scattered Clouds
1:53 AM 57.9 °F 57.9 °F 100% 30.08 in 2.5 mi Calm Calm - 0.01 in   Scattered Clouds
1:57 AM 57.2 °F 57.2 °F 100% 30.08 in 0.8 mi Calm Calm - N/A   Mist
2:20 AM 57.2 °F 57.2 °F 100% 30.09 in 0.2 mi Calm Calm - N/A Fog Fog
2:53 AM 57.0 °F 57.0 °F 100% 30.08 in 0.2 mi Calm Calm - N/A Fog Fog
3:15 AM 57.2 °F 57.2 °F 100% 30.08 in 1.0 mi Calm Calm - N/A   Mist
3:26 AM 57.2 °F 57.2 °F 100% 30.08 in 0.2 mi Calm Calm - N/A Fog Fog
3:53 AM 57.0 °F 57.0 °F 100% 30.08 in 0.5 mi Calm Calm - N/A Fog Fog
4:03 AM 57.2 °F 57.2 °F 100% 30.08 in 1.2 mi Calm Calm - N/A   Overcast
4:14 AM 57.2 °F 57.2 °F 100% 30.08 in 0.5 mi Calm Calm - N/A Fog Fog
4:24 AM 57.2 °F 57.2 °F 100% 30.08 in 0.2 mi Calm Calm - N/A Fog Fog
4:53 AM 57.9 °F 57.9 °F 100% 30.08 in 0.2 mi Calm Calm - N/A Fog Fog
5:53 AM 57.9 °F 57.9 °F 100% 30.09 in 0.2 mi Calm Calm - N/A Fog Fog
6:53 AM 57.9 °F 57.9 °F 100% 30.10 in 0.2 mi Calm Calm - N/A Fog Fog
7:53 AM 59.0 °F 59.0 °F 100% 30.12 in 0.2 mi Calm Calm - N/A Fog Fog
8:32 AM 60.8 °F 60.8 °F 100% 30.14 in 1.2 mi Calm Calm - N/A   Overcast
8:53 AM 62.1 °F 62.1 °F 100% 30.14 in 3.0 mi Calm Calm - N/A   Overcast
9:53 AM 64.0 °F 63.0 °F 96% 30.14 in 5.0 mi Calm Calm - N/A   Overcast
10:10 AM 66.2 °F 64.4 °F 94% 30.14 in 5.0 mi Calm Calm - N/A   Overcast
10:17 AM 66.2 °F 64.4 °F 94% 30.14 in 6.0 mi Calm Calm - N/A   Overcast
10:53 AM 68.0 °F 64.9 °F 90% 30.14 in 5.0 mi SW 5.8 mph - N/A   Overcast
11:00 AM 68.0 °F 64.4 °F 88% 30.14 in 7.0 mi SSW 6.9 mph - N/A   Overcast
11:53 AM 70.0 °F 66.0 °F 87% 30.13 in 7.0 mi SSE 3.5 mph - N/A   Overcast
12:53 PM 72.0 °F 66.9 °F 84% 30.12 in 5.0 mi SW 3.5 mph - N/A   Haze
1:53 PM 73.9 °F 68.0 °F 82% 30.11 in 7.0 mi SSW 3.5 mph - N/A   Overcast
2:53 PM 75.0 °F 68.0 °F 79% 30.08 in 7.0 mi SSW 3.5 mph - 0.00 in   Overcast
3:53 PM 77.0 °F 68.0 °F 74% 30.07 in 7.0 mi SSW 3.5 mph - 0.00 in   Mostly Cloudy
4:03 PM 77.0 °F 66.2 °F 69% 30.07 in 8.0 mi South 3.5 mph - N/A   Scattered Clouds
4:53 PM 77.0 °F 68.0 °F 74% 30.06 in 10.0 mi Calm Calm - 0.00 in   Scattered Clouds
5:53 PM 78.1 °F 66.9 °F 68% 30.05 in 10.0 mi Calm Calm - N/A   Scattered Clouds
6:53 PM 71.1 °F 69.1 °F 93% 30.06 in 6.0 mi South 3.5 mph - N/A   Clear
7:53 PM 69.1 °F 68.0 °F 96% 30.06 in 7.0 mi Calm Calm - N/A   Clear
8:53 PM 69.1 °F 68.0 °F 96% 30.06 in 6.0 mi Calm Calm - N/A   Overcast
9:53 PM 69.1 °F 68.0 °F 96% 30.07 in 5.0 mi Calm Calm - N/A   Overcast
10:53 PM 69.1 °F 66.9 °F 93% 30.07 in 6.0 mi SW 3.5 mph - N/A   Overcast
11:53 PM 68.0 °F 66.9 °F 96% 30.08 in 4.0 mi Calm Calm - N/A   Scattered Clouds